Regional Weather Roundup
Issued by NWS Sterling, VA

Home | Current Version | Previous Version | Text Only | Print | Product List | Glossary Off
Versions: 1 2 3 4 5 6 7 8 9 10 11 12 13 14 15 16 17 18 19 20 21 22 23 24 25 26 27

000
ASUS41 KLWX 281211
RWRLWX

REGIONAL WEATHER ROUNDUP
NATIONAL WEATHER SERVICE BALTIMORE MD/WASHINGTON DC
800 AM EDT FRI APR 28 2017

Note: "FAIR" indicates few or no clouds below 12,000 feet
with no significant weather and/or obstructions to visibility.
 TC=TEMPERATURE CELSIUS

 * =Non NWS site. Station does not report precipitation (e.g. rain,
    snow, etc.), thunder, or fog.

DCZ001-MDZ009-015-VAZ040>042-051-053>054-281300-
WASHINGTON METRO

CITY           SKY/WX    TMP DP  RH WIND       PRES   REMARKS
WASHINGTON NAT MOSUNNY   68  63  84 S6        30.01R
DULLES         MOSUNNY   66  61  84 CALM      30.01R
ANDREWS AFB    SUNNY     68  61  77 SW5       30.00R
FT BELVOIR     SUNNY     66  62  85 CALM      30.00R
QUANTICO       MOSUNNY   68  63  84 NW7       30.00R
COLLEGE PARK*  SUNNY     67  61  79 CALM      29.99R
LEESBURG*      SUNNY     68  64  88 NW5       30.02R
MANASSAS*        N/A     64  61  90 S5        30.02R

$$

MDZ006>007-011-014-281300-
BALTIMORE METRO

CITY           SKY/WX    TMP DP  RH WIND       PRES   REMARKS
BWI AIRPORT    MOSUNNY   68  62  81 SW5       29.99R
MD SCIENCE CTR   N/A     71  59  65 MISG      29.99R
MARTIN STATE   SUNNY     66  66 100 CALM      29.99R
ANNAPOLIS      SUNNY     70  62  76 W5        29.99R
FORT MEADE*    SUNNY     63  61  94 CALM      30.02R

$$

MDZ012-015-019>023-281300-
MARYLAND EASTERN SHORE

CITY           SKY/WX    TMP DP  RH WIND       PRES   REMARKS
OCEAN CITY     CLOUDY    67  63  87 SW7       30.02R
SALISBURY      CLOUDY    68  67  96 SW6       30.01R
BAY BRIDGE AP* SUNNY     68  61  77 W5        29.99R HAZE
CAMBRIDGE*     SUNNY     68  66  94 SW5       30.00R
EASTON*        MOSUNNY   68  64  88 W6        30.03R

$$

MDZ017>025-281300-
SOUTHERN MARYLAND

CITY           SKY/WX    TMP DP  RH WIND       PRES   REMARKS
PATUXENT RIVER CLOUDY    68  68 100 W8        30.00R
ST INIGOES     CLOUDY    68  65  90 CALM      30.00R
LEONARDTOWN*   SUNNY     64  63  94 W5        30.02R

$$

MDZ003>005-281300-
NORTH CENTRAL MARYLAND

CITY           SKY/WX    TMP DP  RH WIND       PRES   REMARKS
FREDERICK*     SUNNY     68  68 100 SW5       30.03R
HAGERSTOWN APT SUNNY     65  56  72 W9        30.02R
WESTMINSTER*   SUNNY     64  61  88 SW3       30.01R

$$

MDZ501>502-281300-
WESTERN MARYLAND

CITY           SKY/WX    TMP DP  RH WIND       PRES   REMARKS
OAKLAND*       SUNNY     50  45  81 W3        30.07R
CUMBERLAND*    SUNNY     61  57  88 NW3       30.08R

$$

VAZ025>031-281300-
SHENANDOAH VALLEY

CITY           SKY/WX    TMP DP  RH WIND       PRES   REMARKS
WINCHESTER*    MOSUNNY   63  57  82 SE3       30.02R
FRONT ROYAL*   SUNNY     64  61  88 CALM      30.02R
LURAY*         SUNNY     59  59 100 CALM      30.03R FOG
NEW MARKET*    SUNNY     57  56  96 S3        30.03R
STAUNTON*      PTSUNNY   55  55 100 CALM      30.06R FOG
WAYNESBORO*    SUNNY     56  56 100 CALM      30.04R

$$

WVZ021-048>050-054>055-281300-
EASTERN WEST VIRGINIA PANHANDLE

CITY           SKY/WX    TMP DP  RH WIND       PRES   REMARKS
MARTINSBURG    SUNNY     65  58  78 NW5       30.01R
PETERSBURG*    FOG       57  57  99 CALM      30.05R VSB 1/2

$$

VAZ036>039-050-281300-
CENTRAL FOOTHILLS

CITY           SKY/WX    TMP DP  RH WIND       PRES   REMARKS
CHARLOTTESVILL SUNNY     64  61  90 W3        30.01R
CULPEPER*      MOSUNNY   63  62  97 CALM      30.03R
ORANGE*        MOSUNNY   63  61  94 CALM      30.01R
GORDONSVILLE*  SUNNY     64  62  94 S3        30.00R
WARRENTON*     MOSUNNY   65  60  82 SW3       30.01R

$$

VAZ055>057-281300-
NORTH AND CENTRAL PIEDMONT

CITY           SKY/WX    TMP DP  RH WIND       PRES   REMARKS
FREDERICKSBRG* SUNNY     67  65  93 CALM      30.00R
STAFFORD*      SUNNY     66  64  93 CALM      30.04R

$$

NCZ024-NYZ072-PAZ021-071-VAZ022-071-281300-
OTHER REGIONAL OBSERVATIONS

CITY           SKY/WX    TMP DP  RH WIND       PRES   REMARKS
NEW YORK CITY  CLOUDY    61  59  93 W3        29.99R FOG
PHILADELPHIA   MOSUNNY   67  63  87 S5        29.96R
PITTSBURGH     MOSUNNY   50  48  93 SE3       30.04R
ROANOKE        FOG       57  57 100 CALM      30.07R VSB 1/2
RICHMOND       MOSUNNY   69  67  93 SW3       30.01R
RALEIGH        MOSUNNY   71  68  90 SW8       30.04R

$$

ANZ530>537-281300-
MARINE OBSERVATIONS

STATION/POSITION TIME  TEMP    WIND        PRES
                       AIR SEA DIR/SP/G
                 (UTC) (F)     (DEG/KT/KT) (MB)
THOMAS PT LIGHT  1100   66 59  250/  6/  7   N/A
BALT KEY BRIDGE  1130   65     240/  4/  5 1015.0R
COVE POINT       1130   67     270/ 10/ 15 1015.8R
LEWISETTA        1130   69 65  260/  7/ 10 1015.4R
SOLOMONS ISLAND  1130   67 61  280/  4/  5   N/A
PINEY POINT      1130          310/  2/  2   N/A

$$





USA.gov is the U.S. government's official web portal to all federal, state and local government web resources and services.